[[{"header":{"parameterUnit":"m.s-1","parameterCategory":1,"la1":30.2991,"la2":30.254,"lo1":-89.0895,"lo2":-89.0444,"dy":0.0017,"dx":0.0017,"nx":28,"ny":28,"refTime":"2024-06-28T21:00:00:Z","depth":0,"parameterNumber":2,"parameterNumberName":"U-component_of_WINDS"},"data":[0,0,0,0,0,0,0,0,0,0,0,0,0,0,0,0,0,0,0,0,0,0,0,0,0,0,0,0,0,0,0,0,0,0,0,0,0,0,0,0,0,0,0,0,0,0,0,0,0,0,0,0,0,0,0,0,0,0,3.67,3.6702,0,3.6845,3.6847,3.6849,3.6837,3.6835,3.6833,3.6831,3.6978,3.6983,3.6989,0,0,0,0,0,0,0,0,0,0,0,0,0,3.641,3.6415,3.67,3.6702,3.6704,3.6845,3.6847,3.6849,3.6837,3.6835,3.6832,3.683,3.6976,3.6983,3.699,0,0,0,0,0,0,0,0,0,0,0,0,0,3.6544,3.6417,3.67,3.6715,3.6718,3.6845,3.6847,3.685,3.6838,3.6835,3.6831,3.6828,3.6973,3.6982,3.6991,3.7111,0,0,3.7018,3.7022,0,0,0,0,0,0,0,0,3.6536,3.6554,3.6711,3.6714,3.6718,3.682,3.6799,3.6937,3.6839,3.6792,3.6831,3.6827,3.6928,3.694,3.6975,3.7118,3.7125,3.7019,3.7024,3.7028,3.7031,0,0,0,0,0,0,0,3.6527,3.6548,3.6758,3.6713,3.6717,3.6714,3.6729,3.6825,3.6877,3.6796,3.6796,3.6813,3.6929,3.6966,3.6978,3.7127,3.7019,3.7027,3.7032,3.7036,3.7373,3.7377,0,0,0,0,0,0,3.6514,3.654,3.6753,3.6762,3.6617,3.6722,3.6739,3.679,3.6876,3.6885,3.6816,3.6812,3.6952,3.6967,3.6983,3.7127,3.7028,3.7037,3.7042,3.737,3.7374,3.7378,0,0,0,0,0,0,3.6508,3.6534,3.6747,3.6651,3.6678,3.673,3.6788,3.6795,3.6832,3.689,3.6899,3.6844,3.695,3.697,3.7079,3.7132,3.7041,3.7049,3.7365,3.7371,3.7376,3.7418,0,0,0,0,0,0,3.65,3.6531,3.6579,3.6652,3.6683,3.6842,3.6791,3.68,3.6848,3.6844,3.692,3.6929,3.6949,3.7066,3.7088,3.7143,3.7056,3.7361,3.7368,3.7374,3.7412,3.7424,3.7435,0,0,0,0,0,3.649,3.6585,3.6581,3.6607,3.6744,3.6845,3.6862,3.6885,3.6852,3.6899,3.6936,3.6926,3.7123,3.7077,3.7102,3.716,3.7358,3.7366,3.7374,3.7407,3.7422,3.7435,0,0,0,0,0,0,3.6517,3.6595,3.6592,3.6714,3.6773,3.6843,3.6903,3.69,3.6969,3.6963,3.6987,3.7004,3.7112,3.7148,3.7095,3.728,3.7236,3.7249,3.7253,3.7267,3.7278,3.7267,3.7063,0,0,0,0,0,3.6537,3.6614,3.6678,3.6779,3.6809,3.6851,3.6896,3.6908,3.697,3.6994,3.7039,3.7099,3.7174,3.7223,3.7295,3.7418,3.7432,3.747,3.7481,3.749,3.7501,3.7565,3.7582,3.7405,3.7405,3.7404,0,0,3.658,3.6632,3.6679,3.6786,3.6833,3.691,3.6872,3.6956,3.7013,3.7007,3.7111,3.7147,3.7214,3.733,3.7383,3.7362,3.7553,3.75,3.7507,3.7513,3.7575,3.7592,3.7607,3.741,3.7409,3.7408,0,0,3.6696,3.6744,3.6833,3.688,3.6952,3.6979,3.7,3.707,3.7093,3.7198,3.7194,3.7262,3.7392,3.7439,3.748,3.7612,3.7605,3.7635,3.7694,3.7756,3.777,3.7782,3.7827,3.7843,3.7646,3.7646,3.7646,0,3.674,3.6857,3.6879,3.6963,3.7009,3.7007,3.7095,3.714,3.7232,3.7263,3.7239,3.7399,3.7445,3.757,3.7602,3.7636,3.7659,3.7626,3.7766,3.7779,3.7791,3.7833,3.785,3.7649,3.7649,3.7649,3.7648,0,3.6905,3.6986,3.7049,3.7137,3.719,3.7276,3.731,3.7361,3.7368,3.7397,3.7502,3.7557,3.7639,3.767,3.7678,3.7795,3.778,3.7761,3.7717,3.781,3.785,3.7867,3.7654,3.7653,3.7652,3.7651,0,0,3.7043,3.7141,3.7163,3.7201,3.7279,3.7341,3.7426,3.7507,3.7549,3.7611,3.7681,3.779,3.7772,3.7819,3.7832,3.7887,3.7984,3.7861,3.7863,3.788,3.8113,3.8125,3.8144,3.798,3.7984,3.7986,3.8107,0,3.7166,3.7316,3.7338,3.747,3.7544,3.7542,3.7615,3.767,3.7699,3.7764,3.7796,3.7871,3.7844,3.7871,3.7926,3.7961,3.8031,3.7953,3.8044,3.8047,3.8025,3.8166,3.8179,3.8291,3.8123,3.8126,3.8128,0,3.7329,3.7395,3.7535,3.7599,3.7631,3.7697,3.777,3.7834,3.7895,3.7912,3.7963,3.7968,3.8054,3.8008,3.8125,3.8071,3.811,3.8132,3.8137,3.8145,3.8091,3.8175,3.8327,3.8343,3.8153,3.8151,3.8149,0,3.7412,3.7536,3.7635,3.7668,3.7747,3.7793,3.7828,3.7886,3.7931,3.7996,3.8025,3.8099,3.8139,3.8195,3.8219,3.8183,3.8334,3.829,3.8348,3.8348,3.8379,3.8376,3.8537,3.8407,3.8407,3.8407,3.8407,0,3.7545,3.763,3.7673,3.7734,3.7828,3.7851,3.7943,3.7976,3.8027,3.8093,3.8096,3.8157,3.8187,3.8252,3.8272,3.8364,3.8383,3.8398,3.8401,3.8396,3.8394,3.842,3.8412,3.8411,3.841,3.8409,3.8409,0,3.7654,3.7686,3.7793,3.7859,3.7877,3.7943,3.7998,3.8056,3.8084,3.8167,3.8187,3.8231,3.8308,3.8338,3.8432,3.8445,3.8551,3.855,3.853,3.8531,3.8586,3.8579,3.8768,3.8792,3.8649,3.865,3.8651,0,3.7736,3.7801,3.7872,3.7917,3.7953,3.8024,3.807,3.8095,3.8143,3.8216,3.8264,3.8341,3.8403,3.8526,3.8565,3.8637,3.8636,3.8697,3.8646,3.8638,3.8633,3.8628,3.8633,3.8705,3.8707,3.8708,3.8709,0,3.7877,3.7889,3.7956,3.8028,3.8083,3.8141,3.8197,3.8233,3.8266,3.8319,3.8398,3.8446,3.8541,3.8616,3.8689,3.8724,3.8721,3.8725,3.8741,3.8736,3.872,3.8726,3.8553,3.872,3.8719,3.8718,3.8717,3.8717,3.7973,3.8029,3.8088,3.8161,3.8206,3.8258,3.8314,3.8349,3.8415,3.8494,3.8504,3.8588,3.8644,3.8742,3.878,3.8844,3.8828,3.8853,3.8859,3.8864,3.8866,3.8712,3.8858,3.8858,3.8857,3.8857,3.8857,0,3.8111,3.8149,3.8216,3.8294,3.8351,3.8344,3.8406,3.8453,3.8527,3.858,3.8641,3.873,3.8802,3.8846,3.8918,3.8961,3.8962,3.8979,3.8975,3.8982,3.8878,3.8855,3.8977,3.8977,3.8977,3.8977,3.8977,3.8977,3.819,3.8284,3.8303,3.8418,3.8455,3.8536,3.8571,3.8618,3.8661,3.8759,3.8819,3.8848,3.8897,3.8972,3.9037,3.9048,3.9074,3.9092,3.9101,3.9003,3.899,3.8978,3.8957,3.9098,3.9098,3.92,3.9201,3.9202]},{"header":{"parameterUnit":"m.s-1","parameterCategory":1,"la1":30.2991,"la2":30.254,"lo1":-89.0895,"lo2":-89.0444,"dy":0.0017,"dx":0.0017,"nx":28,"ny":28,"refTime":"2024-06-28T21:00:00:Z","depth":0,"parameterNumber":3,"parameterNumberName":"V-component_of_WINDS"},"data":[0,0,0,0,0,0,0,0,0,0,0,0,0,0,0,0,0,0,0,0,0,0,0,0,0,0,0,0,0,0,0,0,0,0,0,0,0,0,0,0,0,0,0,0,0,0,0,0,0,0,0,0,0,0,0,0,0,0,0.6578,0.6578,0,0.6626,0.6626,0.6627,0.6579,0.6577,0.6575,0.6573,0.6626,0.6629,0.6632,0,0,0,0,0,0,0,0,0,0,0,0,0,0.6448,0.645,0.6578,0.6578,0.6579,0.6626,0.6626,0.6627,0.6579,0.6577,0.6575,0.6573,0.6625,0.6629,0.6632,0,0,0,0,0,0,0,0,0,0,0,0,0,0.6501,0.6451,0.6578,0.6561,0.656,0.6625,0.6626,0.6627,0.658,0.6577,0.6574,0.6571,0.6624,0.6628,0.6633,0.6719,0,0,0.6647,0.6649,0,0,0,0,0,0,0,0,0.6498,0.6506,0.6563,0.6562,0.6561,0.6593,0.66,0.6658,0.658,0.6572,0.6573,0.657,0.6618,0.6623,0.6638,0.6721,0.6723,0.6648,0.6651,0.6653,0.6654,0,0,0,0,0,0,0,0.6494,0.6503,0.6597,0.6563,0.6562,0.6552,0.6556,0.661,0.661,0.6573,0.6569,0.6576,0.6617,0.6634,0.6639,0.6724,0.6648,0.6652,0.6655,0.6657,0.6881,0.6884,0,0,0,0,0,0,0.6492,0.6501,0.6595,0.6598,0.6522,0.6556,0.6561,0.6586,0.661,0.661,0.6578,0.6573,0.6627,0.6633,0.6641,0.6744,0.6653,0.6657,0.666,0.6878,0.6882,0.6885,0,0,0,0,0,0,0.6489,0.6501,0.6593,0.6548,0.6559,0.6561,0.659,0.6588,0.6605,0.6613,0.6613,0.6595,0.6625,0.6634,0.67,0.6745,0.6659,0.6664,0.6875,0.6879,0.6884,0.695,0,0,0,0,0,0,0.6486,0.65,0.6532,0.655,0.6562,0.6651,0.6592,0.6591,0.6613,0.6607,0.663,0.6631,0.6623,0.6693,0.6704,0.675,0.6667,0.6871,0.6877,0.6882,0.6944,0.6957,0.6967,0,0,0,0,0,0.6481,0.655,0.6534,0.6546,0.6602,0.6654,0.6661,0.665,0.6617,0.665,0.6655,0.663,0.6737,0.67,0.6713,0.676,0.6868,0.6875,0.6882,0.6939,0.6954,0.6967,0,0,0,0,0,0,0.6539,0.6552,0.6535,0.661,0.6631,0.6645,0.6687,0.6667,0.6698,0.6692,0.6678,0.6683,0.6753,0.6763,0.6721,0.6845,0.6797,0.6807,0.6836,0.6851,0.6863,0.686,0.6671,0,0,0,0,0,0.656,0.66,0.6609,0.6675,0.6687,0.6685,0.6707,0.6697,0.6718,0.6727,0.6737,0.676,0.6799,0.6825,0.6861,0.6944,0.695,0.6983,0.6995,0.7004,0.7014,0.706,0.7075,0.6908,0.6908,0.6908,0,0,0.6605,0.6617,0.6643,0.6687,0.6702,0.6745,0.6693,0.674,0.6772,0.6735,0.6798,0.6806,0.683,0.6905,0.6939,0.6916,0.7061,0.7013,0.7021,0.7025,0.7069,0.7085,0.7099,0.6913,0.6912,0.6912,0,0,0.671,0.6722,0.6778,0.6794,0.6817,0.6815,0.6829,0.6846,0.685,0.6912,0.6885,0.6923,0.6991,0.7009,0.7028,0.7138,0.7117,0.715,0.7212,0.7257,0.727,0.7282,0.7323,0.7338,0.7159,0.7159,0.716,0,0.6763,0.6826,0.681,0.686,0.6881,0.6847,0.6905,0.6921,0.6956,0.6971,0.6944,0.7027,0.7041,0.7121,0.7148,0.7163,0.718,0.7149,0.7269,0.7281,0.7292,0.7331,0.7346,0.7164,0.7163,0.7163,0.7162,0,0.6891,0.6935,0.6978,0.7011,0.7036,0.709,0.7084,0.7111,0.7098,0.71,0.7165,0.718,0.7219,0.7236,0.7225,0.7315,0.73,0.7271,0.7224,0.7312,0.7349,0.7363,0.7169,0.7168,0.7167,0.7166,0,0,0.7035,0.7058,0.7074,0.7089,0.7111,0.7145,0.7197,0.7235,0.7259,0.7283,0.7328,0.7385,0.7359,0.738,0.737,0.7409,0.7497,0.7375,0.7376,0.7399,0.7599,0.7623,0.764,0.7482,0.7485,0.7487,0.7598,0,0.7141,0.7231,0.7219,0.7306,0.7347,0.7315,0.7361,0.738,0.7382,0.7418,0.7421,0.7463,0.7424,0.7436,0.7473,0.7479,0.7538,0.747,0.7526,0.7528,0.7523,0.7659,0.7683,0.7787,0.7612,0.7614,0.7616,0,0.7277,0.7306,0.7397,0.7413,0.743,0.7471,0.7505,0.7539,0.756,0.7559,0.7582,0.7565,0.7619,0.7568,0.7642,0.7597,0.7618,0.7624,0.7628,0.7635,0.7579,0.7672,0.782,0.7837,0.7638,0.7636,0.7635,0,0.7375,0.7436,0.7499,0.7512,0.7532,0.7562,0.7572,0.759,0.7614,0.7643,0.7658,0.7694,0.7714,0.7742,0.7735,0.7699,0.7812,0.776,0.7814,0.7815,0.7842,0.7841,0.7998,0.7852,0.7852,0.7851,0.7851,0,0.7497,0.7554,0.7543,0.7582,0.7646,0.7631,0.7695,0.7701,0.7717,0.7758,0.7732,0.777,0.7758,0.7796,0.7791,0.7854,0.7863,0.7865,0.7864,0.7869,0.7869,0.7885,0.7878,0.7855,0.7855,0.7854,0.7853,0,0.7618,0.7613,0.7679,0.7692,0.7697,0.7744,0.7755,0.7792,0.7792,0.7843,0.7855,0.7855,0.7898,0.7894,0.7943,0.7939,0.8019,0.8007,0.8012,0.801,0.8065,0.8061,0.824,0.8264,0.81,0.8101,0.8103,0,0.7697,0.774,0.7758,0.7782,0.7794,0.7834,0.7858,0.7844,0.787,0.7898,0.7932,0.7973,0.8005,0.8076,0.8082,0.8119,0.811,0.817,0.8116,0.812,0.8114,0.8112,0.8117,0.8182,0.8184,0.8185,0.8186,0,0.7838,0.7833,0.7867,0.7901,0.7929,0.7955,0.7979,0.8001,0.799,0.802,0.8064,0.8089,0.8139,0.818,0.8216,0.8227,0.8206,0.8203,0.8218,0.8225,0.8227,0.8229,0.8043,0.82,0.8198,0.8197,0.8197,0.8196,0.7942,0.7979,0.7998,0.8037,0.8053,0.8075,0.8111,0.8115,0.8151,0.819,0.818,0.823,0.825,0.8295,0.831,0.835,0.8328,0.8349,0.8355,0.8361,0.8368,0.8218,0.8356,0.8355,0.8355,0.8355,0.8355,0,0.8083,0.8093,0.8129,0.8163,0.8194,0.8169,0.8194,0.8222,0.8266,0.8286,0.8318,0.8369,0.8409,0.8417,0.8456,0.8486,0.8478,0.8497,0.8496,0.8499,0.8385,0.8369,0.8504,0.8504,0.8503,0.8503,0.8503,0.8503,0.8161,0.8223,0.8221,0.8291,0.8301,0.8349,0.8365,0.8387,0.8403,0.8461,0.8493,0.8498,0.8514,0.8553,0.8589,0.8591,0.8607,0.8631,0.8629,0.8522,0.8507,0.8493,0.8478,0.8634,0.8634,0.8741,0.8742,0.8742]}]]